• In Slovakia
  • List of Countries
  • For 7 days
  • Water Temperature
  • Satellite Maps
  • Weather Map
  • Weather Widgets
  • user-avatar
    Login

    Hourly Weather Ischgl

    Today, 20 May, Sunday

    Time Temperature Precipitation Wind Pressure Humidity
    00:00 +1°C° 0.3 mm 1 mps 574 mmHg 94%
    01:00 +1°C° 0 mm 1 mps 574 mmHg 94%
    02:00 +1°C° 0.1 mm 1 mps 574 mmHg 93%
    03:00 +1°C° 0.1 mm 1 mps 574 mmHg 93%
    04:00 0°C° 0.1 mm 1 mps 574 mmHg 93%
    05:00 +1°C° 0.2 mm 1 mps 574 mmHg 92%
    06:00 +2°C° 0.2 mm 1 mps 575 mmHg 92%
    07:00 +3°C° 0 mm 1 mps 575 mmHg 92%
    08:00 +4°C° 0.3 mm 1 mps 575 mmHg 88%
    09:00 +5°C° 0.3 mm 1 mps 576 mmHg 85%
    10:00 +6°C° 0.3 mm 1 mps 576 mmHg 81%
    11:00 +6°C° 0.6 mm 1 mps 576 mmHg 81%
    12:00 +6°C° 0.6 mm 1 mps 576 mmHg 82%
    13:00 +7°C° 0.6 mm 1 mps 576 mmHg 82%
    14:00 +7°C° 1 mm 1 mps 576 mmHg 83%
    15:00 +6°C° 1 mm 1 mps 575 mmHg 85%
    16:00 +6°C° 1 mm 1 mps 575 mmHg 86%
    17:00 +6°C° 0.7 mm 1 mps 575 mmHg 88%
    18:00 +5°C° 0.7 mm 1 mps 575 mmHg 90%
    19:00 +5°C° 0.7 mm 1 mps 574 mmHg 92%
    20:00 +4°C° 0.1 mm 1 mps 574 mmHg 93%
    21:00 +2°C° 0.1 mm 2 mps 574 mmHg 93%
    22:00 +1°C° 0.1 mm 2 mps 574 mmHg 94%
    23:00 +1°C° 0 mm 2 mps 573 mmHg 93%

    Tomorrow, 21 May, Monday

    Time Temperature Precipitation Wind Pressure Humidity
    00:00 -1°C° 0 mm 2 mps 573 mmHg 93%
    01:00 -1°C° 0 mm 2 mps 573 mmHg 93%
    02:00 -1°C° 0 mm 2 mps 573 mmHg 92%
    03:00 -2°C° 0 mm 2 mps 573 mmHg 92%
    04:00 -2°C° 0 mm 2 mps 572 mmHg 91%
    05:00 -1°C° 0 mm 2 mps 573 mmHg 89%
    06:00 +2°C° 0 mm 2 mps 573 mmHg 87%
    07:00 +3°C° 0 mm 2 mps 574 mmHg 84%
    08:00 +4°C° 0 mm 2 mps 575 mmHg 77%
    09:00 +6°C° 0 mm 2 mps 575 mmHg 69%
    10:00 +9°C° 0 mm 1 mps 576 mmHg 62%
    11:00 +10°C° 0.2 mm 1 mps 576 mmHg 62%
    12:00 +10°C° 0.2 mm 1 mps 576 mmHg 61%
    13:00 +11°C° 0.2 mm 1 mps 576 mmHg 61%
    14:00 +10°C° 0.6 mm 1 mps 576 mmHg 64%
    15:00 +10°C° 0.6 mm 1 mps 575 mmHg 67%
    16:00 +10°C° 0.6 mm 1 mps 575 mmHg 70%
    17:00 +8°C° 0.7 mm 1 mps 574 mmHg 75%
    18:00 +7°C° 0.7 mm 1 mps 574 mmHg 81%
    19:00 +6°C° 0.7 mm 1 mps 573 mmHg 86%
    20:00 +5°C° 0.3 mm 1 mps 573 mmHg 88%
    21:00 +4°C° 0.3 mm 1 mps 573 mmHg 89%
    22:00 +2°C° 0.3 mm 2 mps 573 mmHg 91%
    23:00 +2°C° 0.1 mm 2 mps 572 mmHg 91%

    Day after tomorrow, 22 May, Tuesday

    Time Temperature Precipitation Wind Pressure Humidity
    00:00 +2°C° 0.1 mm 2 mps 572 mmHg 92%
    01:00 +1°C° 0.1 mm 2 mps 572 mmHg 92%
    02:00 +1°C° 0 mm 2 mps 572 mmHg 92%
    03:00 +1°C° 0 mm 2 mps 571 mmHg 91%
    04:00 -1°C° 0 mm 2 mps 571 mmHg 91%
    05:00 +3°C° 0 mm 1 mps 572 mmHg 88%
    06:00 +4°C° 0 mm 1 mps 573 mmHg 84%
    07:00 +5°C° 0 mm 1 mps 573 mmHg 81%
    08:00 +7°C° 0.1 mm 1 mps 574 mmHg 76%
    09:00 +8°C° 0.1 mm 1 mps 575 mmHg 71%
    10:00 +9°C° 0.1 mm 1 mps 576 mmHg 65%
    11:00 +10°C° 0.6 mm 1 mps 576 mmHg 66%
    12:00 +10°C° 0.6 mm 1 mps 576 mmHg 67%
    13:00 +10°C° 0.6 mm 1 mps 576 mmHg 67%
    14:00 +10°C° 1.3 mm 1 mps 575 mmHg 71%
    15:00 +9°C° 1.3 mm 1 mps 575 mmHg 74%
    16:00 +9°C° 1.3 mm 1 mps 575 mmHg 78%
    17:00 +8°C° 0.9 mm 1 mps 575 mmHg 82%
    18:00 +7°C° 0.9 mm 1 mps 574 mmHg 87%
    19:00 +6°C° 0.9 mm 1 mps 574 mmHg 91%
    20:00 +5°C° 0.3 mm 1 mps 574 mmHg 92%
    21:00 +4°C° 0.3 mm 1 mps 574 mmHg 93%
    22:00 +4°C° 0.3 mm 1 mps 574 mmHg 94%
    23:00 +4°C° 0.1 mm 1 mps 574 mmHg 94%

    23 May, Wednesday

    Time Temperature Precipitation Wind Pressure Humidity
    00:00 +3°C° 0.1 mm 1 mps 574 mmHg 94%
    01:00 +3°C° 0.1 mm 1 mps 574 mmHg 94%
    02:00 +3°C° 0.2 mm 1 mps 574 mmHg 94%
    03:00 +3°C° 0.2 mm 1 mps 574 mmHg 94%
    04:00 +3°C° 0.2 mm 1 mps 574 mmHg 94%
    05:00 +4°C° 0.2 mm 1 mps 574 mmHg 92%
    06:00 +5°C° 0.2 mm 1 mps 575 mmHg 89%
    07:00 +6°C° 0.2 mm 1 mps 576 mmHg 87%
    08:00 +7°C° 0.4 mm 1 mps 576 mmHg 83%
    09:00 +8°C° 0.4 mm 1 mps 577 mmHg 79%
    10:00 +9°C° 0.4 mm 1 mps 577 mmHg 75%
    11:00 +10°C° 0.7 mm 1 mps 578 mmHg 74%
    12:00 +10°C° 0.7 mm 1 mps 578 mmHg 73%
    13:00 +11°C° 0.7 mm 1 mps 578 mmHg 72%
    14:00 +11°C° 1.1 mm 1 mps 578 mmHg 73%
    15:00 +10°C° 1.1 mm 2 mps 578 mmHg 74%
    16:00 +10°C° 1.1 mm 2 mps 577 mmHg 75%
    17:00 +9°C° 1.2 mm 2 mps 577 mmHg 80%
    18:00 +9°C° 1.2 mm 1 mps 577 mmHg 86%
    19:00 +7°C° 1.2 mm 1 mps 576 mmHg 91%
    20:00 +7°C° 0.4 mm 1 mps 576 mmHg 92%
    21:00 +6°C° 0.4 mm 1 mps 576 mmHg 94%
    22:00 +5°C° 0.4 mm 1 mps 576 mmHg 95%
    23:00 +4°C° 0 mm 1 mps 575 mmHg 94%

    24 May, Thursday

    Time Temperature Precipitation Wind Pressure Humidity
    00:00 +4°C° 0 mm 1 mps 575 mmHg 94%
    01:00 +4°C° 0 mm 1 mps 575 mmHg 94%
    02:00 +3°C° 0 mm 1 mps 575 mmHg 93%
    03:00 +3°C° 0 mm 1 mps 575 mmHg 93%
    04:00 +3°C° 0 mm 1 mps 574 mmHg 93%
    05:00 +3°C° 0 mm 0 mps 575 mmHg 89%
    06:00 +5°C° 0 mm 0 mps 576 mmHg 86%
    07:00 +7°C° 0 mm 0 mps 577 mmHg 82%
    08:00 +8°C° 0 mm 0 mps 578 mmHg 76%
    09:00 +10°C° 0 mm 1 mps 578 mmHg 70%
    10:00 +12°C° 0 mm 1 mps 579 mmHg 63%
    11:00 +12°C° 0.8 mm 1 mps 579 mmHg 65%
    12:00 +12°C° 0.8 mm 1 mps 579 mmHg 66%
    13:00 +13°C° 0.8 mm 1 mps 579 mmHg 68%
    14:00 +12°C° 1.4 mm 1 mps 578 mmHg 71%
    15:00 +12°C° 1.4 mm 1 mps 578 mmHg 74%
    16:00 +11°C° 1.4 mm 1 mps 578 mmHg 77%
    17:00 +10°C° 1.3 mm 1 mps 577 mmHg 81%
    18:00 +9°C° 1.3 mm 1 mps 577 mmHg 85%
    19:00 +8°C° 1.3 mm 0 mps 577 mmHg 90%
    20:00 +7°C° 0.4 mm 0 mps 576 mmHg 90%
    21:00 +6°C° 0.4 mm 1 mps 576 mmHg 91%
    22:00 +5°C° 0.4 mm 1 mps 576 mmHg 92%
    23:00 +5°C° 0 mm 1 mps 576 mmHg 92%

    25 May, Friday

    Time Temperature Precipitation Wind Pressure Humidity
    00:00 +4°C° 0 mm 1 mps 575 mmHg 91%
    01:00 +4°C° 0 mm 1 mps 575 mmHg 91%
    02:00 +4°C° 0 mm 1 mps 575 mmHg 90%
    03:00 +3°C° 0 mm 1 mps 575 mmHg 90%
    04:00 +3°C° 0 mm 1 mps 575 mmHg 89%
    05:00 +5°C° 0 mm 1 mps 576 mmHg 85%
    06:00 +7°C° 0 mm 1 mps 577 mmHg 80%
    07:00 +9°C° 0 mm 1 mps 577 mmHg 76%
    08:00 +10°C° 0 mm 1 mps 578 mmHg 66%
    09:00 +12°C° 0 mm 1 mps 579 mmHg 57%
    10:00 +14°C° 0 mm 1 mps 580 mmHg 48%
    11:00 +15°C° 0 mm 1 mps 580 mmHg 46%
    12:00 +16°C° 0 mm 1 mps 580 mmHg 44%
    13:00 +16°C° 0 mm 1 mps 581 mmHg 42%
    14:00 +16°C° 0.5 mm 2 mps 580 mmHg 45%
    15:00 +15°C° 0.5 mm 2 mps 580 mmHg 49%
    16:00 +15°C° 0.5 mm 2 mps 580 mmHg 52%
    17:00 +13°C° 1.1 mm 2 mps 579 mmHg 62%
    18:00 +12°C° 1.1 mm 1 mps 579 mmHg 72%
    19:00 +11°C° 1.1 mm 1 mps 578 mmHg 81%
    20:00 +10°C° 0.9 mm 1 mps 578 mmHg 83%
    21:00 +9°C° 0.9 mm 1 mps 578 mmHg 84%
    22:00 +8°C° 0.9 mm 1 mps 578 mmHg 86%
    23:00 +7°C° 0.2 mm 1 mps 577 mmHg 85%
    Show more